Regional Weather Roundup
Issued by NWS

Home | Current Version | Previous Version | Text Only | Print | Product List | Glossary Off
Versions: 1 2 3 4 5 6 7 8 9 10 11 12 13 14 15 16 17 18 19 20 21 22 23 24 25 26 27 28 29 30 31 32 33 34 35 36 37 38 39 40 41 42 43 44 45 46 47 48 49 50

000
ASUS43 KMPX 090010
RWRMN
WEATHER ROUNDUP FOR MINNESOTA
NATIONAL WEATHER SERVICE TWIN CITIES/CHANHASSEN MN
600 PM CST MON FEB 08 2016


NOTE: "FAIR" INDICATES FEW OR NO CLOUDS BELOW 12,000 FEET WITH NO
SIGNIFICANT WEATHER AND/OR OBSTRUCTIONS TO VISIBILITY. N/A MEANS
CURRENT SKY AND/OR WEATHER CONDITIONS ARE NOT AVAILABLE.

MNZ060>063-068>070-090100-
   Twin Cities Metro

CITY           SKY/WX    TMP DP  RH WIND       PRES   REMARKS
TWIN CITIES    CLOUDY    16   6  65 NW18G26   29.96F WCI   0
6HR MIN TEMP:  14; 6HR MAX TEMP:  17; 6HR PCP: TRACE;

ST PAUL        FLURRIES  16   7  67 NW20      29.98R WCI  -1
CRYSTAL        FLURRIES  16   7  67 NW15      29.97R WCI   1
BLAINE         LGT SNOW  18  10  73 NW14G21   29.96R BLWGSNOWWCI   4
LAKEVILLE      CLOUDY    14   9  79 NW17G24   29.95S WCI  -3
EDEN PRAIRIE   FLURRIES  17   7  64 NW15G24   29.96S WCI   2
6HR MIN TEMP:  14; 6HR MAX TEMP:  17; 6HR PCP: TRACE;

SOUTH ST PAUL  CLOUDY    17   8  68 NW14G21   29.96R WCI   2
LAKE ELMO      LGT SNOW  18  12  79 NW8       29.96R WCI   7
$$
MNZ001>005-007-008-013>017-022>024-027-028-090100-
   Northwest Minnesota

CITY           SKY/WX    TMP DP  RH WIND       PRES   REMARKS
BEMIDJI        LGT SNOW   8   2  78 NW16      30.06R WCI -10
HALLOCK        CLOUDY    10   3  72 NW18G24   30.24R WCI  -8
ROSEAU         CLOUDY     9   3  78 N23       30.16R HAZE    WCI -12
WARROAD        CLOUDY     9   1  72 NW20G31   30.14R HAZE    WCI -11
CROOKSTON      PTCLDY    10   7  85 N29       30.23R FOG     WCI -11
FOSSTON        LGT SNOW   7   3  85 NW16      30.13R WCI -11
DETROIT LAKES  CLOUDY    10   5  79 NW21G30   30.11S WCI  -9
MOORHEAD         N/A     10   7  85 N30       30.21R WCI -12
PARK RAPIDS    CLOUDY     9   1  70 NW20G29   30.04R WCI -10
MAHNOMEN       CLOUDY     8   4  84 NW28      30.12R FOG     WCI -15
$$
MNZ006-009>011-018-025>026-090100-
   North Central Minnesota

CITY           SKY/WX    TMP DP  RH WIND       PRES   REMARKS
BAUDETTE       LGT SNOW   6  -2  69 NW18G25   30.08R WCI -13
FLAG ISLAND    CLOUDY     7   0  72 NW21      30.13R WCI -13
INTL FALLS     LGT SNOW   4  -3  73 NW17      30.04R WCI -16
6HR MIN TEMP:   4; 6HR MAX TEMP:   6; 6HR PCP: TRACE;

WASKISH        CLOUDY     7   1  78 NW13G20   30.08R WCI  -9
LONGVILLE      LGT SNOW   9   3  78 NW10G21   30.01R WCI  -6
GRAND RAPIDS   CLOUDY     7  -2  66 NW25      29.97R WCI -15
CRANE LAKE     CLOUDY     5   0  78 NW9G18    30.00R WCI  -9
ORR            MIX PCPN   3  -2  78 NW9G16    29.96R WCI -11
COOK           FLURRIES   5  -2  72 NW10G18   29.97R WCI -10
WALKER         CLOUDY     8   1  73 NW16G23   30.04R WCI -10
$$
MNZ012-019>021-037-090100-
   Northeast Minnesota

CITY           SKY/WX    TMP DP  RH WIND       PRES   REMARKS
DULUTH         LGT SNOW   7   0  73 NW16G23   29.90R BLWGSNOWWCI -11
6HR MIN TEMP:   7; 6HR MAX TEMP:  11; 6HR PCP: TRACE;

ELY            FLURRIES   5   1  85 NW12G17   29.90R WCI -11
HIBBING        LGT SNOW   5  -1  76 NW21G28   29.95R WCI -16
EVELETH        LGT SNOW   7   1  78 NW15G21   29.94R WCI -11
DULUTH HARBOR  FLURRIES  12   3  67 NW12      29.97S WCI  -2
TWO HARBORS    MOCLDY    10   1  67 NW10      29.88R WCI  -3
SILVER BAY     CLOUDY    10   1  67 NW12G23   29.86R WCI  -4
GRAND MARAIS     N/A     11   1  64 NW15G33   29.86F WCI  -5
G MARAIS ARPRT LGT SNOW   3  -4  72 NW17G29   29.76R WCI -17
$$
MNZ029>031-032-039>041-046>048-054>057-064-090100-
   West Central Minnesota

CITY           SKY/WX    TMP DP  RH WIND       PRES   REMARKS
FERGUS FALLS   CLOUDY     9   1  72 N22G33    30.17S WCI -11
WHEATON        FLURRIES  12   9  85 N17G23    30.19R WCI  -5
MORRIS         PTCLDY    12   5  73 N29G37    30.11R WCI  -9
ALEXANDRIA     CLOUDY    11   2  67 NW25G31   30.06R WCI -10
ELBOW LAKE     CLOUDY    10   4  78 N24G31    30.12S WCI -11
WADENA         CLOUDY     9   3  78 NW17G28   30.05R WCI -10
GLENWOOD       MOCLDY    10   3  72 NW23G33   30.06S WCI -10
APPLETON       CLOUDY    16   7  67 N25G33    30.13F WCI  -3
BENSON         FLURRIES  12   5  73 N20G30    30.10S WCI  -6
ORTONVILLE     FLURRIES  14   9  79 N25G33    30.13S WCI  -5
MADISON        CLOUDY    16   9  73 N23G35    30.14S WCI  -2
WILLMAR        FAIR      12   5  73 NW24G30   30.07S WCI  -8
$$
MNZ033>034-036-042>043-049>051-058-059-090100-
   Central Minnesota

CITY           SKY/WX    TMP DP  RH WIND       PRES   REMARKS
ST CLOUD       CLOUDY    14   4  64 NW16G26   29.99R WCI  -2
6HR MIN TEMP:  12; 6HR MAX TEMP:  15; 6HR PCP: TRACE;

SAUK CENTRE    CLOUDY    11   4  74 NW21G28   30.03S WCI  -8
PAYNESVILLE    MOCLDY    11   5  74 NW18G25   30.04S WCI  -6
AITKIN         FLURRIES  12   1  62 NW13G20   29.97R WCI  -3
PINE RIVER     CLOUDY    10   3  72 NW12G18   30.05R WCI  -4
BRAINERD       FLURRIES  11   3  70 N20       30.01R WCI  -7
STAPLES        CLOUDY     9   1  72 NW20G25   30.03R WCI -11
LONG PRAIRIE   CLOUDY    10   5  79 NW16G25   30.03R WCI  -7
LITTLE FALLS   CLOUDY    12   3  67 NW10G22   30.02R WCI  -1
LITCHFIELD     CLOUDY    14   7  73 NW24G33   30.02R WCI  -5
BUFFALO        CLOUDY    15   8  71 NW17G25   30.01R WCI  -1
MAPLE LAKE     FLURRIES  16   9  74 NW21G26   30.01R WCI  -2
$$
MNZ037-044-045-052-053-090100-
   East Central Minnesota

CITY           SKY/WX    TMP DP  RH WIND       PRES   REMARKS
PRINCETON      FLURRIES  16   7  67 NW18G25   29.98R WCI  -1
MORA           CLOUDY    12   5  73 N14G23    29.98R WCI  -3
CAMBRIDGE      FLURRIES  16   7  67 NW12G17   29.96R WCI   3
RUSH CITY      CLOUDY    13   6  74 NW10      29.97R WCI   0
MOOSE LAKE     LGT SNOW  12   3  67 N13       29.94R WCI  -3
HINCKLEY       FLURRIES  14   5  67 NW14G22   29.95S WCI  -1
CLOQUET        FLURRIES   9   0  66 NW15G24   29.93R WCI  -8
MCGREGOR       CLOUDY    10   3  72 NW16G28   29.97R WCI  -7
$$
MNZ071>073-080-081-089-090-097-098-090100-
   Southwest Minnesota

CITY           SKY/WX    TMP DP  RH WIND       PRES   REMARKS
MONTEVIDEO     PTCLDY    14   9  79 N25G36    30.12S WCI  -5
GRANITE FALLS  PTCLDY    16   8  72 NW22G30   30.12S WCI  -2
CANBY          CLOUDY    19  13  77 N16G25    30.14S WCI   4
MARSHALL       FLURRIES  15   8  73 N25G35    30.09R WCI  -4
REDWOOD FALLS  PTCLDY    14   4  64 NW22G36   30.07S WCI  -4
OLIVIA         PTCLDY    16   7  67 NW20G35   30.06S WCI  -1
PIPESTONE      PTCLDY    19   9  63 N16G28    30.07S WCI   5
WINDOM         FLURRIES  12   9  85 NW26G33   30.04R WCI  -8
WORTHINGTON    MOCLDY    14   9  79 N23       30.06S WCI  -5
JACKSON        MOCLDY    16   9  73 NW29G39   30.03S WCI  -4
TRACY          CLEAR     16  10  79 N29       30.08R WCI  -4
SLAYTON        FLURRIES  14  12  90 NW20G26   30.06R WCI  -3
$$
MNZ065>067-074>077-082>085-091>093-090100-
   South Central Minnesota

CITY           SKY/WX    TMP DP  RH WIND       PRES   REMARKS
MANKATO        CLOUDY   N/A N/A N/A NW22G33   29.99S
NEW ULM        MOCLDY    12   7  79 NW25G33   30.02R WCI  -8
ST JAMES       MOCLDY    16   9  73 NW25G35   30.05R WCI  -3
FAIRMONT       CLOUDY   N/A N/A N/A NW31G38   29.99S
GLENCOE        CLOUDY    16  10  77 NW18G24   30.00R WCI   0
FARIBAULT      CLOUDY    16   9  73 NW15G21   29.96S WCI   1
OWATONNA       CLOUDY    16   9  73 NW21      29.94S WCI  -2
WASECA         LGT SNOW  14  10  85 NW23      29.97S WCI  -5
ALBERT LEA     CLOUDY    16  10  79 NW14G25   29.93S WCI   1
$$
MNZ078>079-086>088-094>096-090100-
   Southeast Minnesota

CITY           SKY/WX    TMP DP  RH WIND       PRES   REMARKS
ROCHESTER      LGT SNOW  13   9  84 NW18      29.89S VSB 1   WCI  -4
6HR MIN TEMP:  12; 6HR MAX TEMP:  14; 6HR PCP: TRACE;

RED WING       FLURRIES  16   9  73 NW10      29.94S WCI   3
STANTON        FLURRIES  17  10  74 NW14      29.94S WCI   2
DODGE CENTER   LGT SNOW  12   9  85 NW16      29.90S WCI  -4
WINONA         FLURRIES  18  10  73 NW9       29.93R WCI   6
AUSTIN         LGT SNOW  12  10  92 NW17      29.92R WCI  -5
PRESTON        LGT SNOW  12   7  79 NW16G22   29.88S WCI  -4
$$
ABBREVIATIONS USED IN REMARKS
   TC - TEMPERATURES IN CELSIUS
  WCI - WIND CHILL INDEX
   HX - HEAT INDEX
  VSB - VISIBILITY
$$




USA.gov is the U.S. government's official web portal to all federal, state and local government web resources and services.